| time (UTC) | temp F | wind direction | speed MPH | gust MPH | rain 1hr in | rain 24hr in | rain mn in | humidity % | barometer mb |
| 20260509194538 | 65 | 150 | 1.0 | 4.0 | 0.00 | 0.16 | 0.08 | 71 | 1008.5 |
| 20260509193045 | 65 | 99 | 1.0 | 6.0 | 0.00 | 0.16 | 0.08 | 73 | 1008.6 |
| 20260509191552 | 65 | 27 | 2.0 | 5.0 | 0.00 | 0.16 | 0.08 | 70 | 1008.7 |
| 20260509190048 | 64 | 82 | 1.0 | 5.0 | 0.00 | 0.16 | 0.08 | 73 | 1008.7 |
| 20260509184541 | 64 | 219 | 0.0 | 5.0 | 0.00 | 0.16 | 0.08 | 74 | 1009.0 |
| 20260509183042 | 64 | 72 | 1.0 | 5.0 | 0.00 | 0.16 | 0.08 | 73 | 1009.1 |
| 20260509181539 | 62 | 233 | 0.0 | 5.0 | 0.00 | 0.16 | 0.08 | 80 | 1009.2 |
| 20260509180036 | 61 | 116 | 2.0 | 6.0 | 0.00 | 0.16 | 0.08 | 79 | 1009.2 |
| 20260509174537 | 60 | 0 | 0.0 | 5.0 | 0.00 | 0.16 | 0.08 | 80 | 1009.2 |
| 20260509173052 | 61 | 0 | 1.0 | 3.0 | 0.00 | 0.16 | 0.08 | 80 | 1009.2 |
| 20260509171548 | 60 | 110 | 0.0 | 3.0 | 0.00 | 0.16 | 0.08 | 83 | 1009.2 |
| 20260509170042 | 61 | 246 | 0.0 | 3.0 | 0.00 | 0.16 | 0.08 | 83 | 1009.0 |
| 20260509164546 | 59 | 0 | 0.0 | 6.0 | 0.00 | 0.16 | 0.08 | 86 | 1008.9 |
| 20260509163049 | 60 | 231 | 0.0 | 5.0 | 0.00 | 0.16 | 0.08 | 89 | 1008.8 |
| 20260509161540 | 59 | 0 | 0.0 | 5.0 | 0.00 | 0.16 | 0.08 | 89 | 1008.9 |
| 20260509160039 | 58 | 0 | 0.0 | 7.0 | 0.00 | 0.16 | 0.08 | 90 | 1009.0 |
| 20260509154537 | 57 | 155 | 0.0 | 6.0 | 0.00 | 0.16 | 0.08 | 95 | 1008.8 |
| 20260509153038 | 55 | 76 | 0.0 | 2.0 | 0.00 | 0.16 | 0.08 | 94 | 1008.8 |
| 20260509151542 | 53 | 0 | 0.0 | 2.0 | 0.00 | 0.16 | 0.08 | 95 | 1008.9 |
| 20260509150042 | 53 | 0 | 0.0 | 2.0 | 0.01 | 0.16 | 0.08 | 94 | 1008.9 |
| 20260509144546 | 52 | 0 | 0.0 | 1.0 | 0.01 | 0.16 | 0.08 | 94 | 1009.0 |
| 20260509143038 | 52 | 0 | 0.0 | 3.0 | 0.01 | 0.16 | 0.08 | 94 | 1009.0 |
| 20260509141544 | 52 | 0 | 0.0 | 1.0 | 0.01 | 0.16 | 0.08 | 94 | 1009.1 |
| 20260509140046 | 52 | 0 | 0.0 | 0.0 | 0.00 | 0.15 | 0.07 | 94 | 1009.1 |
| 20260509134550 | 51 | 0 | 0.0 | 1.0 | 0.00 | 0.15 | 0.07 | 94 | 1009.2 |
| 20260509133038 | 51 | 0 | 0.0 | 0.0 | 0.01 | 0.15 | 0.07 | 94 | 1009.2 |
| 20260509131556 | 51 | 0 | 0.0 | 3.0 | 0.02 | 0.15 | 0.07 | 94 | 1009.3 |
| 20260509130050 | 50 | 0 | 0.0 | 3.0 | 0.03 | 0.15 | 0.07 | 94 | 1009.4 |
| 20260509124543 | 50 | 0 | 0.0 | 4.0 | 0.03 | 0.15 | 0.07 | 95 | 1009.4 |
| 20260509123045 | 50 | 170 | 0.0 | 1.0 | 0.03 | 0.14 | 0.06 | 95 | 1009.4 |
| 20260509121543 | 50 | 0 | 0.0 | 3.0 | 0.03 | 0.13 | 0.05 | 95 | 1009.4 |
| 20260509120039 | 50 | 0 | 0.0 | 1.0 | 0.03 | 0.12 | 0.04 | 95 | 1009.5 |
| 20260509114537 | 50 | 0 | 0.0 | 2.0 | 0.03 | 0.12 | 0.04 | 95 | 1009.5 |
| 20260509113036 | 50 | 0 | 0.0 | 3.0 | 0.03 | 0.11 | 0.03 | 95 | 1009.5 |
| 20260509111535 | 49 | 0 | 0.0 | 1.0 | 0.02 | 0.10 | 0.02 | 95 | 1009.3 |
| 20260509110045 | 49 | 0 | 0.0 | 0.0 | 0.01 | 0.09 | 0.01 | 95 | 1009.2 |
| 20260509104549 | 49 | 0 | 0.0 | 0.0 | 0.01 | 0.09 | 0.01 | 95 | 1009.1 |
| 20260509103039 | 49 | 0 | 0.0 | 0.0 | 0.00 | 0.08 | 0.00 | 95 | 1009.1 |
| 20260509101538 | 48 | 0 | 0.0 | 1.0 | 0.00 | 0.08 | 0.00 | 95 | 1009.1 |
| 20260509100039 | 48 | 0 | 0.0 | 0.0 | 0.00 | 0.08 | 0.00 | 95 | 1009.2 |
| 20260509094536 | 48 | 0 | 0.0 | 0.0 | 0.00 | 0.08 | 0.00 | 95 | 1009.4 |
| 20260509093042 | 48 | 0 | 0.0 | 0.0 | 0.00 | 0.08 | 0.00 | 95 | 1009.4 |
| 20260509091538 | 48 | 0 | 0.0 | 0.0 | 0.00 | 0.08 | 0.00 | 95 | 1009.6 |
| 20260509090045 | 48 | 0 | 0.0 | 0.0 | 0.00 | 0.08 | 0.00 | 95 | 1009.6 |
| 20260509084538 | 48 | 0 | 0.0 | 0.0 | 0.00 | 0.08 | 0.00 | 95 | 1009.7 |
| 20260509083046 | 48 | 0 | 0.0 | 0.0 | 0.00 | 0.08 | 0.00 | 95 | 1009.7 |
| 20260509081544 | 48 | 0 | 0.0 | 0.0 | 0.00 | 0.08 | 0.00 | 95 | 1009.7 |
| 20260509080037 | 48 | 0 | 0.0 | 0.0 | 0.00 | 0.08 | 0.00 | 95 | 1009.8 |
| 20260509074536 | 48 | 0 | 0.0 | 0.0 | 0.00 | 0.08 | 0.00 | 95 | 1009.6 |
| 20260509073043 | 48 | 0 | 0.0 | 0.0 | 0.00 | 0.08 | 0.00 | 95 | 1009.7 |
| 20260509071541 | 48 | 0 | 0.0 | 0.0 | 0.00 | 0.08 | 0.00 | 95 | 1009.8 |
| 20260509070040 | 48 | 0 | 0.0 | 0.0 | 0.00 | 0.08 | 0.00 | 95 | 1009.7 |
| 20260509064540 | 48 | 0 | 0.0 | 0.0 | 0.00 | 0.08 | 0.00 | 95 | 1009.9 |
| 20260509063036 | 48 | 0 | 0.0 | 0.0 | 0.00 | 0.08 | 0.00 | 95 | 1009.7 |
| 20260509061536 | 48 | 0 | 0.0 | 0.0 | 0.00 | 0.08 | 0.00 | 95 | 1009.8 |
| 20260509060043 | 48 | 0 | 0.0 | 0.0 | 0.00 | 0.08 | 0.00 | 95 | 1010.2 |
| 20260509054601 | 48 | 0 | 0.0 | 0.0 | 0.00 | 0.08 | 0.00 | 95 | 1010.5 |
| 20260509053131 | 48 | 0 | 0.0 | 0.0 | 0.00 | 0.08 | 0.00 | 95 | 1010.6 |
| 20260509051546 | 48 | 0 | 0.0 | 0.0 | 0.00 | 0.08 | 0.00 | 95 | 1010.8 |
| 20260509050045 | 48 | 0 | 0.0 | 0.0 | 0.00 | 0.08 | 0.00 | 95 | 1010.9 |
| 20260509044536 | 48 | 0 | 0.0 | 0.0 | 0.00 | 0.08 | 0.00 | 95 | 1010.8 |
| 20260509043045 | 49 | 0 | 0.0 | 0.0 | 0.00 | 0.08 | 0.00 | 95 | 1011.1 |
| 20260509041540 | 49 | 0 | 0.0 | 0.0 | 0.01 | 0.08 | 0.00 | 95 | 1011.4 |
| 20260509040047 | 49 | 0 | 0.0 | 0.0 | 0.01 | 0.08 | 0.00 | 94 | 1011.5 |
| 20260509034540 | 49 | 0 | 0.0 | 0.0 | 0.01 | 0.08 | 0.08 | 94 | 1011.7 |
| 20260509033043 | 49 | 0 | 0.0 | 0.0 | 0.02 | 0.08 | 0.08 | 94 | 1012.1 |
| 20260509031544 | 49 | 0 | 0.0 | 0.0 | 0.02 | 0.07 | 0.07 | 94 | 1012.2 |
| 20260509030040 | 49 | 0 | 0.0 | 0.0 | 0.03 | 0.07 | 0.07 | 94 | 1012.4 |
| 20260509024543 | 50 | 0 | 0.0 | 0.0 | 0.04 | 0.07 | 0.07 | 94 | 1012.5 |
| 20260509023046 | 50 | 0 | 0.0 | 0.0 | 0.03 | 0.06 | 0.06 | 93 | 1012.7 |
| 20260509021538 | 50 | 0 | 0.0 | 0.0 | 0.02 | 0.05 | 0.05 | 93 | 1012.7 |
| 20260509020044 | 50 | 0 | 0.0 | 1.0 | 0.01 | 0.04 | 0.04 | 92 | 1012.5 |
| 20260509014543 | 50 | 0 | 0.0 | 0.0 | 0.01 | 0.03 | 0.03 | 90 | 1012.4 |
| 20260509013052 | 51 | 0 | 0.0 | 2.0 | 0.01 | 0.03 | 0.03 | 89 | 1011.8 |
| 20260509011539 | 51 | 0 | 0.0 | 2.0 | 0.01 | 0.03 | 0.03 | 88 | 1011.4 |
| 20260509010038 | 51 | 0 | 0.0 | 2.0 | 0.00 | 0.02 | 0.02 | 88 | 1011.5 |
| 20260509004541 | 51 | 0 | 0.0 | 0.0 | 0.00 | 0.02 | 0.02 | 88 | 1010.9 |
| 20260509003054 | 52 | 0 | 0.0 | 1.0 | 0.00 | 0.02 | 0.02 | 87 | 1010.9 |
| 20260509001535 | 52 | 0 | 0.0 | 0.0 | 0.00 | 0.02 | 0.02 | 87 | 1011.3 |
| 20260509000039 | 52 | 0 | 0.0 | 0.0 | 0.00 | 0.02 | 0.02 | 87 | 1011.1 |
| 20260508234541 | 52 | 0 | 0.0 | 1.0 | 0.00 | 0.02 | 0.02 | 87 | 1010.6 |
| 20260508233038 | 52 | 242 | 0.0 | 1.0 | 0.00 | 0.02 | 0.02 | 87 | 1010.8 |
| 20260508231541 | 53 | 0 | 0.0 | 1.0 | 0.00 | 0.02 | 0.02 | 87 | 1011.1 |
| 20260508230036 | 53 | 0 | 0.0 | 0.0 | 0.00 | 0.02 | 0.02 | 86 | 1011.4 |
| 20260508224541 | 53 | 0 | 0.0 | 1.0 | 0.00 | 0.02 | 0.02 | 85 | 1011.3 |
| 20260508223042 | 53 | 0 | 0.0 | 0.0 | 0.00 | 0.02 | 0.02 | 87 | 1011.4 |
| 20260508221541 | 53 | 0 | 0.0 | 0.0 | 0.00 | 0.02 | 0.02 | 87 | 1011.6 |
| 20260508220042 | 54 | 0 | 0.0 | 0.0 | 0.00 | 0.02 | 0.02 | 83 | 1011.4 |
| 20260508214538 | 54 | 0 | 0.0 | 0.0 | 0.00 | 0.02 | 0.02 | 83 | 1011.4 |
| 20260508213041 | 54 | 0 | 0.0 | 0.0 | 0.00 | 0.02 | 0.02 | 86 | 1011.5 |
| 20260508211540 | 53 | 0 | 0.0 | 0.0 | 0.00 | 0.02 | 0.02 | 85 | 1011.4 |
| 20260508210039 | 53 | 0 | 0.0 | 0.0 | 0.00 | 0.02 | 0.02 | 86 | 1011.5 |
| 20260508204538 | 53 | 0 | 0.0 | 0.0 | 0.00 | 0.02 | 0.02 | 88 | 1011.5 |
| 20260508203046 | 53 | 0 | 0.0 | 0.0 | 0.01 | 0.02 | 0.02 | 89 | 1011.7 |
| 20260508201537 | 52 | 0 | 0.0 | 0.0 | 0.01 | 0.02 | 0.02 | 89 | 1011.9 |
| 20260508200055 | 52 | 0 | 0.0 | 0.0 | 0.02 | 0.02 | 0.02 | 87 | 1012.2 |